Meteo Giornale » Osservazioni meteo Corea del Sud » Muan Intl
ore: 04:00 - Osservazioni Meteo Muan Intl
Lat. 34° 59' N Lon. 126° 23' E Alt. 2 metri s.l.m.
25 °C
Sereno
Temp. 24 Ore
25 °C
31 °C
Est/Nord-Est
7.4 Km/h
Dew point 24 °C
Umidità 94 %
Visibilità 10 Km
Il sole sorge alle ore 06:07
Il sole tramonta alle ore 19:00
| Data e Ora | Cielo e Fenomeni | T °C | DP °C | Um. % | Pres. hPa | Vis. km | Vento km/h | |
|---|---|---|---|---|---|---|---|---|
| Oggi h: 04:00 | Sereno | 25 | 24 | 94 | 1011 | 10 | E/NE 7.4 | |
| Oggi h: 03:00 | Sereno | 25 | 24 | 94 | 1012 | 10 | N 5.5 | |
| Oggi h: 02:00 | Sereno | 25 | 24 | 94 | 1012 | 10 | NE 9.3 | |
| Oggi h: 01:00 | Sereno | 25 | 24 | 94 | 1012 | 10 | N 5.5 | |
| Oggi h: 00:00 | Sereno | 25 | 24 | 94 | 1012 | 10 | E 7.4 | |
| Ieri h: 23:00 | Sereno | 25 | 24 | 94 | 1012 | 10 | E/NE 7.4 | |
| Ieri h: 22:00 | Molto Nuvoloso | 26 | 24 | 88 | 1012 | 10 | N 3.7 | |
| Ieri h: 21:00 | Molto Nuvoloso | 26 | 24 | 88 | 1012 | 10 | N 5.5 | |
| Ieri h: 20:00 | Molto Nuvoloso | 27 | 24 | 83 | 1012 | 10 | N 3.7 | |
| Ieri h: 19:00 | Molto Nuvoloso | 28 | 24 | 78 | 1011 | 10 | NO 13 | |
| Ieri h: 18:00 | Molto Nuvoloso | 29 | 24 | 74 | 1011 | 10 | O/NO 13 | |
| Ieri h: 17:00 | Molto Nuvoloso | 30 | 24 | 70 | 1010 | 10 | O 11.1 | |
| Ieri h: 16:00 | Molto Nuvoloso | 30 | 24 | 70 | 1010 | 10 | O 9.3 | |
| Ieri h: 15:00 | Molto Nuvoloso | 31 | 24 | 66 | 1010 | 10 | O/SO 18.5 | |
| Ieri h: 14:00 | Molto Nuvoloso | 31 | 24 | 66 | 1011 | 10 | O/SO 20.3 | |
| Ieri h: 13:00 | Molto Nuvoloso | 31 | 24 | 66 | 1011 | 10 | SO 22.2 | |
| Ieri h: 12:00 | Nuvoloso | 31 | 23 | 62 | 1011 | 10 | S/SO 24 | |
| Ieri h: 11:00 | Nuvoloso | 30 | 24 | 70 | 1011 | 10 | S/SO 24 | |
| Ieri h: 10:00 | Nuvoloso | 30 | 24 | 70 | 1011 | 10 | S/SO 20.3 | |
| Ieri h: 09:00 | Nuvoloso | 29 | 24 | 74 | 1011 | 10 | S 16.7 | |
| Ieri h: 08:00 | Nuvoloso | 28 | 24 | 78 | 1011 | 10 | S/SE 14.8 | |
| Ieri h: 07:00 | Nuvoloso | 26 | 24 | 88 | 1011 | 10 | E 7.4 | |
| Ieri h: 06:00 | Nuvoloso | 25 | 24 | 94 | 1010 | 10 | E/SE 7.4 | |



